Location: Stara Lesna
(49.1528°N, 20.2911°E)
Time: 19:13:42
(UTC+02:00)

Cosmos 1934 Rocket - Pass Details

Date: 13 July 2020
Orbit: 939 x 998 km, 83.0° (Epoch: 10 August)

Event Time Altitude Azimuth Distance (km) Brightness Sun altitude
Exits shadow 01:08:15 31° 197° (SSW) 1,625 4.6 -18.9°
Maximum altitude 01:11:25 80° 280° (W) 997 4.0 -18.8°
Drops below altitude 10° 01:17:45 10° 8° (N) 2,755 7.6 -18.7°
Sets 01:20:19 0° 9° (N) 3,715 8.8 -18.6°
